Weather History for Keokuk, IA

Change the Weather History Date:

Saturday, October 26, 2013

  Actual Average Record
Temperature  
Mean Temperature 45 °F -  
Max Temperature 55 °F 62 °F 84 °F (1939)
Min Temperature 35 °F 41 °F 27 °F (1962)
Degree Days  
Heating Degree Days 20    
Moisture  
Dew Point 28 °F    
Average Humidity 51    
Maximum Humidity 70    
Minimum Humidity 29    
Precipitation  
Precipitation 0.00 in - - ()
Sea Level Pressure  
Sea Level Pressure 30.06 in    
Wind  
Wind Speed 12 mph (West)    
Max Wind Speed 22 mph    
Max Gust Speed 30 mph    
Visibility 10 miles    
Events      
Averages and records for this station are not official NWS values.
T = Trace of Precipitation, MM = Missing Value Source: NWS Daily Summary

Daily Weather History Graph

Daily Weather History Graph

Search for Another Location

Airport:

Trip Planner

Search our weather history database for the weather conditions in past years. The results will help you decide how hot, cold, wet, or windy it might be!

Date:

Astronomy

Oct. 26, 2013 Rise Set
Actual Time 7:29 AM CDT 6:09 PM CDT
Civil Twilight 7:01 AM CDT 6:37 PM CDT
Nautical Twilight 6:29 AM CDT 7:09 PM CDT
Astronomical Twilight 5:57 AM CDT 7:41 PM CDT
Moon No Moon Rise 1:45 PM CDT (10/26)
Length of Visible Light 11h 36m
Length of Day
10h 40m
Waning Gibbous, 53% of the Moon is Illuminated
Oct 26
Waning Gibbous
Oct 26
Last Quarter
Nov 3
New
Nov 9
First Quarter
Nov 17
Full

Hourly Weather History & Observations

Time (CDT) Temp. Windchill Dew Point Humidity Pressure Visibility Wind Dir Wind Speed Gust Speed Precip Events Conditions
12:15 AM 44.6 °F 38.8 °F 26.6 °F 49% 30.11 in 10.0 mi SSW 11.5 mph - N/A   Mostly Cloudy
12:35 AM 44.6 °F 38.8 °F 26.6 °F 49% 30.09 in 10.0 mi SSW 11.5 mph 18.4 mph N/A   Overcast
12:55 AM 44.6 °F 38.1 °F 26.6 °F 49% 30.08 in 10.0 mi SSW 13.8 mph - N/A   Overcast
1:15 AM 44.6 °F 38.8 °F 26.6 °F 49% 30.09 in 10.0 mi SW 11.5 mph 17.3 mph N/A   Overcast
1:35 AM 44.6 °F 38.4 °F 26.6 °F 49% 30.08 in 10.0 mi SSW 12.7 mph - N/A   Mostly Cloudy
1:55 AM 44.6 °F 39.2 °F 26.6 °F 49% 30.07 in 10.0 mi SSW 10.4 mph 18.4 mph N/A   Overcast
2:15 AM 44.6 °F 39.2 °F 26.6 °F 49% 30.06 in 10.0 mi SSW 10.4 mph - N/A   Overcast
2:35 AM 42.8 °F 37.0 °F 28.4 °F 57% 30.05 in 10.0 mi SW 10.4 mph - N/A   Overcast
2:55 AM 42.8 °F 36.2 °F 28.4 °F 57% 30.05 in 10.0 mi SSW 12.7 mph - N/A   Mostly Cloudy
3:15 AM 42.8 °F 35.8 °F 28.4 °F 57% 30.03 in 10.0 mi SSW 13.8 mph - N/A   Overcast
3:35 AM 42.8 °F 36.6 °F 28.4 °F 57% 30.02 in 10.0 mi SW 11.5 mph 17.3 mph N/A   Mostly Cloudy
3:55 AM 42.8 °F 36.2 °F 28.4 °F 57% 30.02 in 10.0 mi SSW 12.7 mph 18.4 mph N/A   Partly Cloudy
4:15 AM 42.8 °F 35.8 °F 28.4 °F 57% 30.00 in - SSW 13.8 mph - N/A   Clear
4:35 AM 42.8 °F 36.2 °F 28.4 °F 57% 30.00 in 10.0 mi SSW 12.7 mph - N/A   Clear
4:55 AM 42.8 °F 36.2 °F 30.2 °F 61% 29.99 in 10.0 mi SW 12.7 mph - N/A   Clear
5:15 AM 42.8 °F 36.6 °F 30.2 °F 61% 29.99 in 10.0 mi SW 11.5 mph - N/A   Clear
5:35 AM 42.8 °F 36.2 °F 30.2 °F 61% 29.99 in 10.0 mi SW 12.7 mph - N/A   Clear
5:55 AM 42.8 °F 35.8 °F 30.2 °F 61% 29.98 in 10.0 mi SW 13.8 mph 20.7 mph N/A   Clear
6:15 AM 42.8 °F 36.6 °F 30.2 °F 61% 29.98 in 10.0 mi SW 11.5 mph - N/A   Clear
6:35 AM 42.8 °F 36.2 °F 32.0 °F 66% 29.98 in 10.0 mi SW 12.7 mph - N/A   Clear
6:55 AM 41.0 °F 34.3 °F 32.0 °F 70% 29.99 in 10.0 mi SW 11.5 mph - N/A   Clear
7:15 AM 41.0 °F 35.2 °F 32.0 °F 70% 30.00 in 10.0 mi SW 9.2 mph - N/A   Clear
7:35 AM 41.0 °F 34.7 °F 32.0 °F 70% 29.99 in 10.0 mi SW 10.4 mph - N/A   Clear
7:55 AM 42.8 °F 37.0 °F 32.0 °F 66% 29.99 in 10.0 mi SW 10.4 mph - N/A   Clear
8:15 AM 42.8 °F 36.2 °F 33.8 °F 70% 29.99 in 10.0 mi WSW 12.7 mph - N/A   Clear
8:35 AM 44.6 °F 38.8 °F 33.8 °F 66% 30.00 in 10.0 mi WSW 11.5 mph - N/A   Clear
8:55 AM 46.4 °F 40.7 °F 35.6 °F 66% 30.01 in 10.0 mi WSW 12.7 mph - N/A   Clear
9:15 AM 48.2 °F - 35.6 °F 62% 30.02 in 10.0 mi West 12.7 mph 18.4 mph N/A   Clear
9:35 AM 50.0 °F - 35.6 °F 58% 30.01 in 10.0 mi West 12.7 mph 18.4 mph N/A   Clear
9:55 AM 50.0 °F - 35.6 °F 58% 30.02 in 10.0 mi NW 15.0 mph 23.0 mph N/A   Clear
10:15 AM 51.8 °F - 35.6 °F 54% 30.02 in 10.0 mi NW 15.0 mph 21.9 mph N/A   Clear
10:35 AM 53.6 °F - 33.8 °F 47% 30.02 in 10.0 mi NW 13.8 mph 19.6 mph N/A   Clear
10:55 AM 53.6 °F - 33.8 °F 47% 30.03 in 10.0 mi NW 13.8 mph 21.9 mph N/A   Clear
11:15 AM 53.6 °F - 32.0 °F 44% 30.04 in 10.0 mi NNW 13.8 mph 24.2 mph N/A   Clear
11:35 AM 53.6 °F - 30.2 °F 41% 30.04 in 10.0 mi NW 15.0 mph 25.3 mph N/A   Clear
11:55 AM 55.4 °F - 28.4 °F 36% 30.04 in 10.0 mi NW 21.9 mph 27.6 mph N/A   Clear
12:15 PM 55.4 °F - 28.4 °F 36% 30.05 in 10.0 mi NW 18.4 mph - N/A   Clear
12:35 PM 55.4 °F - 28.4 °F 36% 30.05 in 10.0 mi NW 17.3 mph 25.3 mph N/A   Clear
12:55 PM 55.4 °F - 26.6 °F 33% 30.05 in 10.0 mi NNW 17.3 mph 25.3 mph N/A   Clear
1:15 PM 55.4 °F - 26.6 °F 33% 30.05 in 10.0 mi NNW 15.0 mph 25.3 mph N/A   Clear
1:35 PM 55.4 °F - 26.6 °F 33% 30.05 in 10.0 mi NNW 18.4 mph 24.2 mph N/A   Clear
1:55 PM 55.4 °F - 23.0 °F 29% 30.06 in 10.0 mi NW 17.3 mph 27.6 mph N/A   Clear
2:15 PM 53.6 °F - 23.0 °F 30% 30.06 in 10.0 mi NW 12.7 mph 27.6 mph N/A   Clear
2:35 PM 55.4 °F - 23.0 °F 29% 30.06 in - NW 15.0 mph 24.2 mph N/A   Clear
2:55 PM 55.4 °F - 23.0 °F 29% 30.06 in 10.0 mi NW 16.1 mph 29.9 mph N/A   Clear
3:15 PM 55.4 °F - 24.8 °F 31% 30.07 in 10.0 mi NW 17.3 mph 24.2 mph N/A   Clear
3:35 PM 53.6 °F - 24.8 °F 33% 30.07 in 10.0 mi NW 19.6 mph - N/A   Clear
3:55 PM 53.6 °F - 23.0 °F 30% 30.08 in 10.0 mi NNW 15.0 mph 24.2 mph N/A   Clear
4:15 PM 53.6 °F - 24.8 °F 33% 30.08 in 10.0 mi North 11.5 mph 23.0 mph N/A   Clear
4:35 PM 53.6 °F - 24.8 °F 33% 30.08 in 10.0 mi NNW 16.1 mph 21.9 mph N/A   Clear
4:55 PM 53.6 °F - 26.6 °F 35% 30.09 in 10.0 mi NW 13.8 mph - N/A   Clear
5:15 PM 51.8 °F - 24.8 °F 35% 30.09 in 10.0 mi NNW 13.8 mph 20.7 mph N/A   Clear
5:35 PM 51.8 °F - 24.8 °F 35% 30.09 in 10.0 mi NW 11.5 mph - N/A   Clear
5:55 PM 50.0 °F - 23.0 °F 35% 30.09 in 10.0 mi NNW 8.1 mph - N/A   Clear
6:15 PM 48.2 °F - 23.0 °F 37% 30.10 in 10.0 mi NW 6.9 mph - N/A   Clear
6:35 PM 48.2 °F - 24.8 °F 40% 30.10 in 10.0 mi NW 4.6 mph - N/A   Clear
6:55 PM 46.4 °F 44.3 °F 24.8 °F 43% 30.11 in 10.0 mi WNW 4.6 mph - N/A   Clear
7:15 PM 44.6 °F 41.4 °F 24.8 °F 46% 30.12 in 10.0 mi NW 5.8 mph - N/A   Clear
7:35 PM 44.6 °F 42.2 °F 24.8 °F 46% 30.13 in 10.0 mi WNW 4.6 mph - N/A   Clear
7:55 PM 42.8 °F 40.1 °F 24.8 °F 49% 30.13 in 10.0 mi WNW 4.6 mph - N/A   Clear
8:15 PM 39.2 °F 37.0 °F 26.6 °F 61% 30.13 in 10.0 mi West 3.5 mph - N/A   Clear
8:35 PM 39.2 °F 35.0 °F 26.6 °F 61% 30.13 in 10.0 mi West 5.8 mph - N/A   Clear
8:55 PM 41.0 °F 38.0 °F 26.6 °F 57% 30.13 in 10.0 mi West 4.6 mph - N/A   Clear
9:15 PM 37.4 °F 34.9 °F 26.6 °F 65% 30.13 in 10.0 mi WNW 3.5 mph - N/A   Clear
9:35 PM 37.4 °F 33.8 °F 26.6 °F 65% 30.14 in 10.0 mi West 4.6 mph - N/A   Clear
9:55 PM 35.6 °F 31.7 °F 26.6 °F 70% 30.14 in 10.0 mi West 4.6 mph - N/A   Clear
10:15 PM 37.4 °F - 26.6 °F 65% 30.15 in 10.0 mi Calm Calm - N/A   Clear
10:35 PM 37.4 °F 34.9 °F 26.6 °F 65% 30.15 in 10.0 mi West 3.5 mph - N/A   Clear
10:55 PM 37.4 °F - 26.6 °F 65% 30.14 in 10.0 mi Calm Calm - N/A   Clear
11:15 PM 35.6 °F - 26.6 °F 70% 30.14 in 10.0 mi Calm Calm - N/A   Clear
11:35 PM 37.4 °F - 26.6 °F 65% 30.14 in 10.0 mi Calm Calm - N/A   Clear
11:55 PM 35.6 °F 32.8 °F 26.6 °F 70% 30.13 in 10.0 mi West 3.5 mph - N/A   Clear